| time (UTC) | temp F | wind direction | speed knots | gust knots | rain 1hr in | rain 24hr in | rain mn in | humidity % | barometer mb |
| 20260906092006 | 69 | 0 | 0.0 | 0.0 | 0.00 | 0.23 | 0.00 | 100 | 1012.1 |
| 20260906091006 | 69 | 0 | 0.0 | 0.0 | 0.00 | 0.23 | 0.00 | 95 | 1011.9 |
| 20260906090006 | 69 | 0 | 0.0 | 0.0 | 0.00 | 0.23 | 0.00 | 95 | 1012.1 |
| 20260906085006 | 69 | 0 | 0.0 | 0.0 | 0.00 | 0.23 | 0.00 | 95 | 1012.1 |
| 20260906084007 | 69 | 0 | 0.0 | 0.0 | 0.00 | 0.23 | 0.00 | 95 | 1012.1 |
| 20260906082006 | 70 | 0 | 0.0 | 0.0 | 0.00 | 0.23 | 0.00 | 95 | 1012.1 |
| 20260906081006 | 70 | 0 | 0.0 | 0.0 | 0.00 | 0.23 | 0.00 | 95 | 1012.3 |
| 20260906080006 | 70 | 0 | 0.0 | 0.0 | 0.00 | 0.23 | 0.00 | 95 | 1012.1 |
| 20260906075006 | 70 | 0 | 0.0 | 0.0 | 0.00 | 0.23 | 0.00 | 95 | 1012.5 |
| 20260906074006 | 70 | 0 | 0.0 | 0.0 | 0.00 | 0.23 | 0.00 | 95 | 1012.5 |
| 20260906073007 | 70 | 0 | 0.0 | 0.0 | 0.00 | 0.23 | 0.00 | 95 | 1012.5 |
| 20260906072006 | 70 | 0 | 0.0 | 0.0 | 0.00 | 0.23 | 0.00 | 95 | 1012.1 |
| 20260906071007 | 70 | 0 | 0.0 | 0.0 | 0.00 | 0.23 | 0.00 | 95 | 1012.1 |
| 20260906070007 | 71 | 0 | 0.0 | 0.0 | 0.00 | 0.23 | 0.00 | 95 | 1012.1 |
| 20260906065006 | 71 | 0 | 0.0 | 0.0 | 0.00 | 0.23 | 0.00 | 95 | 1012.5 |
| 20260906064006 | 71 | 0 | 0.0 | 0.0 | 0.00 | 0.23 | 0.00 | 95 | 1012.8 |
| 20260906063007 | 71 | 0 | 0.0 | 0.0 | 0.00 | 0.23 | 0.00 | 95 | 1012.6 |
| 20260906061007 | 71 | 0 | 0.0 | 0.0 | 0.00 | 0.23 | 0.00 | 95 | 1012.8 |
| 20260906055006 | 71 | 0 | 0.0 | 0.0 | 0.00 | 0.23 | 0.00 | 94 | 1012.8 |
| 20260906054007 | 71 | 0 | 0.0 | 0.0 | 0.00 | 0.23 | 0.00 | 94 | 1012.8 |
| 20260906053007 | 71 | 0 | 0.0 | 0.0 | 0.00 | 0.23 | 0.00 | 93 | 1013.2 |
| 20260906052007 | 72 | 0 | 0.0 | 0.0 | 0.00 | 0.23 | 0.00 | 93 | 1013.2 |
| 20260906050007 | 72 | 0 | 0.0 | 0.0 | 0.00 | 0.23 | 0.00 | 93 | 1013.2 |
| 20260906045008 | 72 | 0 | 0.0 | 0.0 | 0.00 | 0.23 | 0.00 | 93 | 1013.2 |
| 20260906043008 | 72 | 0 | 0.0 | 0.0 | 0.00 | 0.23 | 0.00 | 92 | 1013.2 |
| 20260906042006 | 73 | 0 | 0.0 | 0.0 | 0.00 | 0.23 | 0.00 | 93 | 1012.8 |
| 20260906040007 | 73 | 0 | 0.0 | 0.0 | 0.00 | 0.23 | 0.00 | 93 | 1012.8 |
| 20260906035006 | 73 | 0 | 0.0 | 0.0 | 0.00 | 0.23 | 0.23 | 93 | 1012.8 |
| 20260906034008 | 73 | 0 | 0.0 | 0.0 | 0.00 | 0.23 | 0.23 | 93 | 1013.1 |
| 20260906033007 | 73 | 0 | 0.0 | 0.0 | 0.00 | 0.23 | 0.23 | 93 | 1012.8 |
| 20260906032007 | 73 | 0 | 0.0 | 0.0 | 0.00 | 0.23 | 0.23 | 93 | 1012.8 |
| 20260906031007 | 73 | 0 | 0.0 | 0.0 | 0.00 | 0.23 | 0.23 | 92 | 1013.5 |
| 20260906030006 | 73 | 0 | 0.0 | 0.0 | 0.00 | 0.23 | 0.23 | 92 | 1013.4 |
| 20260906025007 | 73 | 0 | 0.0 | 0.0 | 0.00 | 0.23 | 0.23 | 92 | 1013.5 |
| 20260906024006 | 73 | 0 | 0.0 | 0.0 | 0.00 | 0.23 | 0.23 | 91 | 1013.5 |
| 20260906023007 | 73 | 0 | 0.0 | 0.0 | 0.00 | 0.23 | 0.23 | 91 | 1013.2 |
| 20260906022006 | 74 | 0 | 0.0 | 0.0 | 0.00 | 0.23 | 0.23 | 90 | 1012.9 |
| 20260906021008 | 74 | 0 | 0.0 | 0.0 | 0.00 | 0.23 | 0.23 | 90 | 1013.2 |
| 20260906020007 | 74 | 0 | 0.0 | 0.0 | 0.00 | 0.23 | 0.23 | 90 | 1013.2 |
| 20260906015006 | 74 | 0 | 0.0 | 0.0 | 0.00 | 0.23 | 0.23 | 89 | 1013.2 |
| 20260906014007 | 74 | 0 | 0.0 | 0.0 | 0.00 | 0.23 | 0.23 | 89 | 1013.1 |
| 20260906013007 | 75 | 0 | 0.0 | 0.0 | 0.00 | 0.23 | 0.23 | 88 | 1012.8 |
| 20260906012006 | 75 | 0 | 0.0 | 0.0 | 0.00 | 0.23 | 0.23 | 87 | 1012.6 |
| 20260906011007 | 75 | 0 | 0.0 | 0.0 | 0.00 | 0.23 | 0.23 | 87 | 1012.5 |
| 20260906010007 | 76 | 0 | 0.0 | 0.0 | 0.00 | 0.23 | 0.23 | 86 | 1012.1 |
| 20260906004007 | 77 | 0 | 0.0 | 0.0 | 0.00 | 0.23 | 0.23 | 85 | 1012.1 |
| 20260906001007 | 78 | 0 | 0.0 | 0.0 | 0.00 | 0.23 | 0.23 | 84 | 1012.1 |
| 20260906000006 | 79 | 0 | 0.0 | 0.0 | 0.00 | 0.23 | 0.23 | 82 | 1012.5 |
| 20260905235007 | 79 | 0 | 0.0 | 0.0 | 0.00 | 0.23 | 0.23 | 81 | 1012.1 |
| 20260905234007 | 80 | 0 | 0.0 | 0.0 | 0.00 | 0.23 | 0.23 | 80 | 1012.1 |
| 20260905233007 | 81 | 0 | 0.0 | 0.0 | 0.00 | 0.23 | 0.23 | 79 | 1012.3 |
| 20260905232007 | 82 | 0 | 0.0 | 0.0 | 0.00 | 0.23 | 0.23 | 79 | 1011.8 |
| 20260905231008 | 82 | 0 | 0.0 | 0.0 | 0.00 | 0.23 | 0.23 | 78 | 1011.8 |
| 20260905230004 | 82 | 0 | 0.0 | 0.0 | 0.00 | 0.23 | 0.23 | 77 | 1012.1 |
| 20260905225005 | 83 | 0 | 0.0 | 0.0 | 0.00 | 0.23 | 0.23 | 76 | 1011.8 |
| 20260905224005 | 83 | 0 | 0.0 | 0.0 | 0.00 | 0.23 | 0.23 | 75 | 1012.1 |
| 20260905223005 | 85 | 0 | 0.0 | 0.0 | 0.00 | 0.23 | 0.23 | 73 | 1012.3 |
| 20260905222005 | 85 | 0 | 0.0 | 0.0 | 0.00 | 0.23 | 0.23 | 74 | 1012.5 |
| 20260905220006 | 86 | 0 | 0.0 | 0.0 | 0.00 | 0.23 | 0.23 | 71 | 1012.5 |
| 20260905215005 | 88 | 0 | 0.0 | 0.0 | 0.00 | 0.23 | 0.23 | 70 | 1012.5 |
| 20260905213006 | 88 | 0 | 0.0 | 0.0 | 0.00 | 0.23 | 0.23 | 70 | 1012.1 |
| 20260905212005 | 87 | 0 | 0.0 | 0.0 | 0.00 | 0.23 | 0.23 | 70 | 1012.1 |
| 20260905211006 | 88 | 0 | 0.0 | 0.0 | 0.00 | 0.23 | 0.23 | 69 | 1011.9 |
| 20260905210005 | 87 | 0 | 0.0 | 0.0 | 0.00 | 0.23 | 0.23 | 71 | 1011.8 |
| 20260905205006 | 87 | 0 | 0.0 | 0.0 | 0.00 | 0.23 | 0.23 | 69 | 1012.0 |
| 20260905204006 | 87 | 0 | 0.0 | 0.0 | 0.00 | 0.23 | 0.23 | 70 | 1011.8 |
| 20260905203005 | 86 | 0 | 0.0 | 0.0 | 0.00 | 0.23 | 0.23 | 71 | 1011.8 |
| 20260905202006 | 86 | 0 | 0.0 | 0.0 | 0.00 | 0.23 | 0.23 | 71 | 1011.8 |
| 20260905201005 | 85 | 0 | 0.0 | 0.0 | 0.00 | 0.23 | 0.23 | 72 | 1011.8 |
| 20260905200005 | 84 | 0 | 0.0 | 0.0 | 0.00 | 0.23 | 0.23 | 73 | 1012.1 |
| 20260905195006 | 84 | 0 | 0.0 | 0.0 | 0.00 | 0.23 | 0.23 | 71 | 1012.7 |
| 20260905194006 | 84 | 0 | 0.0 | 0.0 | 0.00 | 0.23 | 0.23 | 74 | 1012.8 |
| 20260905193008 | 83 | 0 | 0.0 | 0.0 | 0.00 | 0.23 | 0.23 | 75 | 1013.2 |
| 20260905192006 | 83 | 0 | 0.0 | 0.0 | 0.00 | 0.23 | 0.23 | 74 | 1013.2 |
| 20260905191005 | 83 | 0 | 0.0 | 0.0 | 0.00 | 0.23 | 0.23 | 72 | 1013.4 |
| 20260905190005 | 83 | 0 | 0.0 | 0.0 | 0.00 | 0.23 | 0.23 | 75 | 1013.5 |
| 20260905185005 | 82 | 0 | 0.0 | 0.0 | 0.00 | 0.23 | 0.23 | 79 | 1013.8 |
| 20260905184006 | 81 | 0 | 0.0 | 0.0 | 0.00 | 0.23 | 0.23 | 80 | 1014.5 |
| 20260905183006 | 81 | 0 | 0.0 | 0.0 | 0.00 | 0.23 | 0.23 | 82 | 1014.5 |
| 20260905182005 | 80 | 0 | 0.0 | 0.0 | 0.00 | 0.23 | 0.23 | 82 | 1014.9 |
| 20260905181006 | 79 | 0 | 0.0 | 0.0 | 0.00 | 0.23 | 0.23 | 83 | 1015.2 |
| 20260905180006 | 79 | 0 | 0.0 | 0.0 | 0.00 | 0.23 | 0.23 | 85 | 1015.2 |
| 20260905175006 | 78 | 0 | 0.0 | 0.0 | 0.00 | 0.23 | 0.23 | 85 | 1015.2 |
| 20260905174005 | 78 | 0 | 0.0 | 0.0 | 0.00 | 0.23 | 0.23 | 87 | 1015.5 |
| 20260905172007 | 74 | 0 | 0.0 | 0.0 | 0.00 | 0.23 | 0.23 | 91 | 1016.2 |
| 20260905171006 | 74 | 0 | 0.0 | 0.0 | 0.00 | 0.23 | 0.23 | 91 | 1015.7 |
| 20260905165005 | 73 | 0 | 0.0 | 0.0 | 0.00 | 0.23 | 0.23 | 93 | 1015.5 |
| 20260905164006 | 72 | 0 | 0.0 | 0.0 | 0.00 | 0.23 | 0.23 | 93 | 1015.5 |
| 20260905163005 | 71 | 0 | 0.0 | 0.0 | 0.00 | 0.23 | 0.23 | 93 | 1015.7 |
| 20260905161005 | 71 | 0 | 0.0 | 0.0 | 0.00 | 0.23 | 0.23 | 92 | 1016.2 |
| 20260905154005 | 71 | 0 | 0.0 | 0.0 | 0.23 | 0.23 | 0.23 | 92 | 1016.9 |
| 20260905153006 | 71 | 0 | 0.0 | 0.0 | 0.23 | 0.23 | 0.23 | 91 | 1017.2 |
| 20260905152005 | 72 | 0 | 0.0 | 0.0 | 0.23 | 0.23 | 0.23 | 90 | 1016.5 |
| 20260905151006 | 73 | 0 | 0.0 | 0.0 | 0.23 | 0.23 | 0.23 | 89 | 1016.5 |
| 20260905145005 | 78 | 0 | 0.0 | 0.0 | 0.00 | 0.00 | 0.00 | 85 | 1015.2 |
| 20260905143006 | 78 | 0 | 0.0 | 0.0 | 0.00 | 0.00 | 0.00 | 87 | 1014.9 |
| 20260905142005 | 78 | 0 | 0.0 | 0.0 | 0.00 | 0.00 | 0.00 | 87 | 1015.2 |
| 20260905141006 | 78 | 0 | 0.0 | 0.0 | 0.00 | 0.00 | 0.00 | 86 | 1015.5 |
| 20260905134005 | 75 | 0 | 0.0 | 0.0 | 0.00 | 0.00 | 0.00 | 90 | 1015.5 |
| 20260905132006 | 75 | 0 | 0.0 | 0.0 | 0.00 | 0.00 | 0.00 | 93 | 1015.5 |
| 20260905131006 | 73 | 0 | 0.0 | 0.0 | 0.00 | 0.00 | 0.00 | 93 | 1015.7 |
| 20260905130006 | 73 | 0 | 0.0 | 0.0 | 0.00 | 0.00 | 0.00 | 94 | 1015.5 |
| 20260905124006 | 71 | 0 | 0.0 | 0.0 | 0.00 | 0.00 | 0.00 | 94 | 1015.7 |
| 20260905123006 | 71 | 0 | 0.0 | 0.0 | 0.00 | 0.00 | 0.00 | 95 | 1015.5 |
| 20260905122006 | 69 | 0 | 0.0 | 0.0 | 0.00 | 0.00 | 0.00 | 95 | 1015.5 |
| 20260905121006 | 69 | 0 | 0.0 | 0.0 | 0.00 | 0.00 | 0.00 | 95 | 1015.5 |
| 20260905115006 | 67 | 0 | 0.0 | 0.0 | 0.00 | 0.00 | 0.00 | 95 | 1015.3 |
| 20260905114005 | 67 | 0 | 0.0 | 0.0 | 0.00 | 0.00 | 0.00 | 95 | 1015.2 |
| 20260905113006 | 67 | 0 | 0.0 | 0.0 | 0.00 | 0.00 | 0.00 | 95 | 1015.2 |
| 20260905112006 | 67 | 0 | 0.0 | 0.0 | 0.00 | 0.00 | 0.00 | 95 | 1015.2 |
| 20260905110006 | 67 | 0 | 0.0 | 0.0 | 0.00 | 0.00 | 0.00 | 95 | 1014.9 |
| 20260905105006 | 67 | 0 | 0.0 | 0.0 | 0.00 | 0.00 | 0.00 | 94 | 1014.9 |
| 20260905104006 | 67 | 0 | 0.0 | 0.0 | 0.00 | 0.00 | 0.00 | 94 | 1014.5 |
| 20260905103006 | 67 | 0 | 0.0 | 0.0 | 0.00 | 0.00 | 0.00 | 94 | 1014.5 |
| 20260905102006 | 68 | 0 | 0.0 | 0.0 | 0.00 | 0.00 | 0.00 | 94 | 1014.5 |
| 20260905095007 | 68 | 0 | 0.0 | 0.0 | 0.00 | 0.00 | 0.00 | 94 | 1014.5 |
| 20260905094006 | 68 | 0 | 0.0 | 0.0 | 0.00 | 0.00 | 0.00 | 94 | 1014.5 |
| 20260905093006 | 68 | 0 | 0.0 | 0.0 | 0.00 | 0.00 | 0.00 | 94 | 1014.5 |